Weather History for Chariton, IA

Change the Weather History Date:

Thursday, September 12, 2013

  Actual Average Record
Temperature  
Mean Temperature 68 °F -  
Max Temperature 78 °F 80 °F 95 °F (1998)
Min Temperature 59 °F 53 °F 32 °F (1955)
Cooling Degree Days 4    
Growing Degree Days 18 (Base 50)    
Moisture  
Dew Point 54 °F    
Average Humidity 60    
Maximum Humidity 94    
Minimum Humidity 28    
Precipitation  
Precipitation 0.00 in - - ()
Sea Level Pressure  
Sea Level Pressure 30.14 in    
Wind  
Wind Speed 8 mph (NNW)    
Max Wind Speed 18 mph    
Max Gust Speed 26 mph    
Visibility 10 miles    
Events      
Averages and records for this station are not official NWS values.
T = Trace of Precipitation, MM = Missing Value Source: NWS Daily Summary

Daily Weather History Graph

Daily Weather History Graph

Search for Another Location

Airport:

Trip Planner

Search our weather history database for the weather conditions in past years. The results will help you decide how hot, cold, wet, or windy it might be!

Date:

Astronomy

Sep. 12, 2013 Rise Set
Actual Time 6:51 AM CDT 7:27 PM CDT
Civil Twilight 6:23 AM CDT 7:54 PM CDT
Nautical Twilight 5:50 AM CDT 8:27 PM CDT
Astronomical Twilight 5:17 AM CDT 9:01 PM CDT
Moon 2:22 PM CDT (9/12) No Moon Set
Length of Visible Light 13h 31m
Length of Day
12h 35m
Waxing Crescent, 50% of the Moon is Illuminated
Sep 12
Waxing Crescent
Sep 12
First Quarter
Sep 19
Full
Sep 26
Last Quarter
Oct 4
New

Hourly Weather History & Observations

Time (CDT) Temp. Dew Point Humidity Pressure Visibility Wind Dir Wind Speed Gust Speed Precip Events Conditions
12:15 AM 71.6 °F 68.0 °F 88% 30.09 in 10.0 mi SSW 4.6 mph - N/A   Overcast
12:55 AM 69.8 °F 68.0 °F 94% 30.08 in 10.0 mi Calm Calm - N/A   Overcast
1:15 AM 69.8 °F 68.0 °F 94% 30.08 in 10.0 mi Calm Calm - N/A   Overcast
1:35 AM 69.8 °F 68.0 °F 94% 30.08 in 10.0 mi SW 3.5 mph - N/A   Overcast
1:55 AM 69.8 °F 68.0 °F 94% 30.09 in 10.0 mi West 4.6 mph - N/A   Overcast
2:15 AM 69.8 °F 68.0 °F 94% 30.09 in 10.0 mi WSW 5.8 mph - N/A   Overcast
2:35 AM 69.8 °F 68.0 °F 94% 30.10 in 10.0 mi West 3.5 mph - N/A   Overcast
2:55 AM 69.8 °F 66.2 °F 88% 30.10 in 10.0 mi SW 3.5 mph - N/A   Overcast
3:15 AM 69.8 °F 68.0 °F 94% 30.10 in 10.0 mi West 4.6 mph - N/A   Overcast
3:35 AM 69.8 °F 68.0 °F 94% 30.10 in 10.0 mi WSW 4.6 mph - N/A   Overcast
3:55 AM 69.8 °F 68.0 °F 94% 30.10 in 10.0 mi SSW 8.1 mph - N/A   Overcast
4:15 AM 69.8 °F 68.0 °F 94% 30.10 in 10.0 mi SW 5.8 mph - N/A   Mostly Cloudy
4:35 AM 69.8 °F 68.0 °F 94% 30.10 in 10.0 mi WSW 8.1 mph - N/A   Mostly Cloudy
4:55 AM 69.8 °F 66.2 °F 88% 30.10 in 10.0 mi West 8.1 mph - N/A   Scattered Clouds
5:15 AM 69.8 °F 66.2 °F 88% 30.10 in 10.0 mi WSW 6.9 mph - N/A   Mostly Cloudy
5:35 AM 69.8 °F 66.2 °F 88% 30.11 in 10.0 mi WNW 6.9 mph - N/A   Overcast
5:55 AM 68.0 °F 66.2 °F 94% 30.11 in 10.0 mi WNW 5.8 mph - N/A   Mostly Cloudy
6:15 AM 66.2 °F 64.4 °F 94% 30.11 in 10.0 mi West 4.6 mph - N/A   Partly Cloudy
6:35 AM 66.2 °F 64.4 °F 94% 30.11 in 10.0 mi WNW 5.8 mph - N/A   Clear
6:55 AM 64.4 °F 62.6 °F 94% 30.11 in 10.0 mi NW 5.8 mph - N/A   Clear
7:15 AM 64.4 °F 62.6 °F 94% 30.11 in 10.0 mi NNW 4.6 mph - N/A   Clear
7:35 AM 66.2 °F 62.6 °F 88% 30.12 in 10.0 mi NNW 9.2 mph - N/A   Clear
7:55 AM 66.2 °F 60.8 °F 83% 30.12 in 10.0 mi North 9.2 mph - N/A   Clear
8:15 AM 66.2 °F 59.0 °F 78% 30.14 in 10.0 mi North 10.4 mph 16.1 mph N/A   Clear
8:35 AM 68.0 °F 57.2 °F 68% 30.14 in 10.0 mi North 12.7 mph - N/A   Clear
8:55 AM 68.0 °F 57.2 °F 68% 30.14 in 10.0 mi North 11.5 mph - N/A   Clear
9:15 AM 69.8 °F 57.2 °F 64% 30.15 in 10.0 mi North 11.5 mph - N/A   Clear
9:35 AM 69.8 °F 55.4 °F 60% 30.16 in 10.0 mi North 11.5 mph 17.3 mph N/A   Clear
9:55 AM 71.6 °F 55.4 °F 57% 30.17 in 10.0 mi North 11.5 mph - N/A   Clear
10:15 AM 71.6 °F 53.6 °F 53% 30.17 in 10.0 mi North 12.7 mph - N/A   Clear
10:35 AM 73.4 °F 55.4 °F 53% 30.18 in 10.0 mi North 11.5 mph - N/A   Clear
10:55 AM 73.4 °F 51.8 °F 47% 30.18 in 10.0 mi NNW 12.7 mph - N/A   Clear
11:15 AM 75.2 °F 50.0 °F 41% 30.18 in 10.0 mi North 12.7 mph - N/A   Clear
11:35 AM 75.2 °F 48.2 °F 38% 30.18 in 10.0 mi NNE 12.7 mph 19.6 mph N/A   Clear
11:55 AM 75.2 °F 44.6 °F 34% 30.18 in 10.0 mi North 18.4 mph 24.2 mph N/A   Clear
12:15 PM 77.0 °F 46.4 °F 34% 30.18 in 10.0 mi NNE 12.7 mph - N/A   Clear
12:35 PM 77.0 °F 46.4 °F 34% 30.17 in 10.0 mi North 17.3 mph - N/A   Partly Cloudy
12:55 PM 77.0 °F 46.4 °F 34% 30.17 in 10.0 mi North 10.4 mph 20.7 mph N/A   Clear
1:15 PM 77.0 °F 44.6 °F 32% 30.17 in 10.0 mi North 15.0 mph 25.3 mph N/A   Clear
1:35 PM 78.8 °F 44.6 °F 30% 30.16 in 10.0 mi North 18.4 mph 25.3 mph N/A   Clear
1:55 PM 78.8 °F 44.6 °F 30% 30.16 in 10.0 mi NNW 11.5 mph 24.2 mph N/A   Clear
2:15 PM 78.8 °F 44.6 °F 30% 30.15 in 10.0 mi North 13.8 mph 21.9 mph N/A   Clear
2:35 PM 78.8 °F 42.8 °F 28% 30.15 in 10.0 mi NNW 13.8 mph 25.3 mph N/A   Clear
2:55 PM 78.8 °F 42.8 °F 28% 30.14 in 10.0 mi NNW 11.5 mph 23.0 mph N/A   Clear
3:15 PM 78.8 °F 42.8 °F 28% 30.14 in 10.0 mi NNW 15.0 mph 21.9 mph N/A   Clear
3:35 PM 78.8 °F 42.8 °F 28% 30.13 in 10.0 mi North 10.4 mph 20.7 mph N/A   Clear
3:55 PM 78.8 °F 42.8 °F 28% 30.13 in 10.0 mi North 17.3 mph 23.0 mph N/A   Clear
4:15 PM 78.8 °F 42.8 °F 28% 30.13 in 10.0 mi NNW 15.0 mph 26.5 mph N/A   Clear
4:35 PM 78.8 °F 42.8 °F 28% 30.13 in 10.0 mi North 15.0 mph 21.9 mph N/A   Clear
4:55 PM 77.0 °F 42.8 °F 29% 30.13 in 10.0 mi North 15.0 mph 24.2 mph N/A   Clear
5:15 PM 77.0 °F 42.8 °F 29% 30.12 in 10.0 mi North 16.1 mph 24.2 mph N/A   Clear
5:35 PM 77.0 °F 42.8 °F 29% 30.12 in 10.0 mi North 13.8 mph 23.0 mph N/A   Clear
5:55 PM 75.2 °F 44.6 °F 34% 30.12 in 10.0 mi NNW 10.4 mph 20.7 mph N/A   Clear
6:15 PM 75.2 °F 44.6 °F 34% 30.13 in 10.0 mi North 13.8 mph 19.6 mph N/A   Clear
6:35 PM 73.4 °F 42.8 °F 33% 30.13 in 10.0 mi North 15.0 mph 23.0 mph N/A   Clear
6:55 PM 73.4 °F 44.6 °F 36% 30.14 in 10.0 mi North 10.4 mph 17.3 mph N/A   Clear
7:15 PM 69.8 °F 44.6 °F 40% 30.14 in 10.0 mi North 8.1 mph - N/A   Clear
7:35 PM 66.2 °F 46.4 °F 49% 30.14 in 10.0 mi North 6.9 mph - N/A   Clear
7:55 PM 64.4 °F 48.2 °F 56% 30.15 in 10.0 mi North 6.9 mph - N/A   Clear
8:15 PM 64.4 °F 48.2 °F 56% 30.15 in 10.0 mi North 6.9 mph - N/A   Clear
8:35 PM 62.6 °F 48.2 °F 59% 30.16 in 10.0 mi North 5.8 mph - N/A   Clear
8:55 PM 62.6 °F 48.2 °F 59% 30.16 in 10.0 mi North 8.1 mph - N/A   Clear
9:15 PM 62.6 °F 48.2 °F 59% 30.16 in 10.0 mi North 9.2 mph - N/A   Partly Cloudy
9:35 PM 66.2 °F 48.2 °F 52% 30.17 in 10.0 mi NNE 10.4 mph 19.6 mph N/A   Partly Cloudy
9:55 PM 62.6 °F 48.2 °F 59% 30.17 in 10.0 mi North 6.9 mph - N/A   Clear
10:15 PM 60.8 °F 48.2 °F 63% 30.17 in 10.0 mi North 5.8 mph - N/A   Clear
10:35 PM 60.8 °F 48.2 °F 63% 30.17 in 10.0 mi North 5.8 mph - N/A   Partly Cloudy
10:55 PM 60.8 °F 48.2 °F 63% 30.17 in 10.0 mi North 5.8 mph - N/A   Partly Cloudy
11:15 PM 59.0 °F 48.2 °F 67% 30.18 in 10.0 mi North 4.6 mph - N/A   Clear
11:35 PM 60.8 °F 48.2 °F 63% 30.18 in 10.0 mi North 4.6 mph - N/A   Clear
11:55 PM 59.0 °F 48.2 °F 67% 30.18 in 10.0 mi North 4.6 mph - N/A   Partly Cloudy